Regional Weather Roundup
Issued by NWS

Home | Current Version | Previous Version | Text Only | Print | Product List | Glossary Off
Versions: 1 2 3 4 5 6 7 8 9 10 11 12 13 14 15 16 17 18 19 20 21 22 23 24 25 26 27 28 29 30 31 32 33 34 35 36 37 38 39 40 41 42 43 44 45 46 47 48 49 50

000
ASUS45 KABQ 201401
RWRNM
NEW MEXICO REGIONAL WEATHER ROUNDUP
NATIONAL WEATHER SERVICE ALBUQUERQUE NM
700 AM MST FRI JAN 20 2017

NOTE: "FAIR" MEANS FEW OR NO CLOUDS BELOW 12,000 FEET AGL WITH NO
       SIGNIFICANT WEATHER OR OBSTRUCTIONS TO VISION.

      THIS PRODUCT IS RELEASED AS TWO VERSIONS.  ONE VERSION NEAR
      THE TOP OF THE HOUR CONTAINING PRELIMINARY DATA FROM ALBUQUERQUE
      AND OTHER STATIONS.  A FINAL VERSION WITH ADDITIONAL DATA IS
      ISSUED ABOUT 10 MINUTES AFTER THE HOUR.

NMZ501-503-504-510>518-201500-
NORTHWEST PLATEAU/NORTHCENTRAL MOUNTAINS

CITY           SKY/WX    TMP DP  RH WIND       PRES   REMARKS
FARMINGTON     CLOUDY    30  27  88 CALM      29.68R
LOS ALAMOS     MOCLDY    30  20  66 W15G21    29.66R WCI  19
SANTA FE       MOCLDY    32  24  72 W13G22    29.67R WCI  22
TAOS           FAIR      27  14  59 W7        29.62R WCI  19
ANGEL FIRE     CLOUDY    23  17  78 W18G32    29.59S HAZE    WCI   9

$$
NMZ402-403-502-505>509-201500-
WESTCENTRAL MOUNTAINS/SOUTHWEST MOUNTAINS

CITY           SKY/WX    TMP DP  RH WIND       PRES   REMARKS
GALLUP         CLOUDY    30  26  85 SW13      29.74R WCI  20
GRANTS         CLOUDY    31  22  70 W17G24    29.73S WCI  19
SILVER CITY    FAIR      36  28  74 W17       29.82S WCI  26

$$
NMZ407-409-411-412-201500-
SOUTHERN DESERTS

CITY           SKY/WX    TMP DP  RH WIND       PRES   REMARKS
DEMING         FAIR      39  29  67 W16       29.83R WCI  30
LAS CRUCES     FAIR      36  31  82 CALM      29.84R
ALAMOGORDO     CLOUDY    45  30  57 S10       29.81S
T OR C         MOCLDY    42  30  62 SW10      29.74S

$$
NMZ519>523-201500-
CENTRAL VALLEYS/CENTRAL HIGHLANDS

CITY           SKY/WX    TMP DP  RH WIND       PRES   REMARKS
ALBUQUERQUE    MOCLDY    34  31  88 W9G20     29.72R WCI  27
DOUBLE EAGLE   MOCLDY    30  30 100 SW10      29.72R WCI  21
MORIARTY ARPT  LGT SNOW  32  27  82 W20G29    29.70F WCI  20
CLINES CORNERS SNOW      28  26  92 W36G43    29.67R VSB 1/2 WCI  11
BELEN          FLURRIES  34  31  88 W10       29.74S WCI  26
SOCORRO        CLOUDY    38  32  78 S6        29.74R WCI  33

$$
NMZ524>526-539-540-201500-
SOUTHCENTRAL MOUNTAINS

CITY           SKY/WX    TMP DP  RH WIND       PRES   REMARKS
RUIDOSO        NOT AVBL

$$
NMZ527>531-201500-
NORTHEAST HIGHLANDS/NORTHEAST PLAINS

CITY           SKY/WX    TMP DP  RH WIND       PRES   REMARKS
LAS VEGAS      FAIR      29  20  69 W14       29.59S WCI  18
RATON          FAIR      34  15  46 W15       29.50F WCI  24
CLAYTON        FAIR      32  28  85 W12       29.49S WCI  23

$$
NMZ532>537-201500-
EASTCENTRAL PLAINS

CITY           SKY/WX    TMP DP  RH WIND       PRES   REMARKS
TUCUMCARI      FAIR      39  28  64 SW8       29.60R WCI  33
CANNON AFB     FAIR      37  37  99 W14       29.64S WCI  29
CLOVIS AIRPORT FAIR      36  28  75 W12       29.64S WCI  27

$$
NMZ028-029-538-201500-
SOUTHEAST PLAINS

CITY           SKY/WX    TMP DP  RH WIND       PRES   REMARKS
ROSWELL        FAIR      43  27  53 S3        29.69R
ARTESIA        FAIR      45  30  57 SW9       29.72F
CARLSBAD       FAIR      50  28  42 W8        29.73R
HOBBS          CLEAR     43  30  61 SW10      29.73S


$$



USA.gov is the U.S. government's official web portal to all federal, state and local government web resources and services.